| time (UTC) | temp F | wind direction | speed MPH | gust MPH | rain 1hr in | rain 24hr in | rain mn in | humidity % | barometer mb |
| 20260507061412 | 48 | 0 | 0.0 | 2.0 | 0.00 | 0.00 | 0.00 | 99 | 1014.1 |
| 20260507054410 | 43 | 315 | 0.0 | 2.0 | 0.00 | 0.00 | 0.00 | 99 | 1013.9 |
| 20260507051411 | 41 | 315 | 0.0 | 0.0 | 0.00 | 0.00 | 0.00 | 99 | 1013.5 |
| 20260507044411 | 40 | 315 | 0.0 | 2.0 | 0.00 | 0.00 | 0.00 | 99 | 1013.3 |
| 20260507044409 | 40 | 315 | 0.0 | 2.0 | 0.00 | 0.00 | 0.00 | 99 | 1013.3 |
| 20260507041410 | 40 | 315 | 0.0 | 2.0 | 0.00 | 0.00 | 0.00 | 99 | 1013.1 |
| 20260507034409 | 40 | 0 | 1.0 | 3.0 | 0.00 | 0.00 | 0.00 | 99 | 1012.8 |
| 20260507031410 | 39 | 315 | 1.0 | 3.0 | 0.00 | 0.00 | 0.00 | 99 | 1012.7 |
| 20260507024410 | 39 | 315 | 0.0 | 1.0 | 0.00 | 0.00 | 0.00 | 99 | 1012.6 |
| 20260507021410 | 40 | 315 | 0.0 | 2.0 | 0.00 | 0.00 | 0.00 | 99 | 1012.3 |
| 20260507011412 | 41 | 315 | 1.0 | 3.0 | 0.00 | 0.00 | 0.00 | 99 | 1012.1 |
| 20260507001412 | 41 | 0 | 2.0 | 3.0 | 0.00 | 0.00 | 0.00 | 99 | 1011.8 |
| 20260506234410 | 41 | 315 | 2.0 | 4.0 | 0.00 | 0.00 | 0.00 | 99 | 1011.9 |
| 20260506231410 | 41 | 315 | 1.0 | 3.0 | 0.00 | 0.00 | 0.00 | 99 | 1011.8 |
| 20260506224410 | 41 | 315 | 1.0 | 2.0 | 0.00 | 0.00 | 0.00 | 99 | 1011.8 |
| 20260506221410 | 41 | 315 | 1.0 | 2.0 | 0.00 | 0.00 | 0.00 | 99 | 1011.8 |
| 20260506201411 | 45 | 315 | 1.0 | 6.0 | 0.00 | 0.00 | 0.00 | 99 | 1011.3 |
| 20260506194411 | 46 | 315 | 1.0 | 4.0 | 0.00 | 0.00 | 0.00 | 99 | 1011.1 |
| 20260506191412 | 48 | 0 | 1.0 | 4.0 | 0.00 | 0.00 | 0.00 | 94 | 1010.7 |
| 20260506181411 | 51 | 315 | 2.0 | 10.0 | 0.00 | 0.00 | 0.00 | 82 | 1010.0 |
| 20260506171411 | 54 | 0 | 3.0 | 11.0 | 0.00 | 0.00 | 0.00 | 76 | 1009.5 |
| 20260506161411 | 56 | 0 | 2.0 | 8.0 | 0.00 | 0.00 | 0.00 | 62 | 1009.2 |
| 20260506154411 | 55 | 180 | 6.0 | 21.0 | 0.00 | 0.00 | 0.00 | 63 | 1009.2 |
| 20260506144412 | 57 | 270 | 3.0 | 11.0 | 0.00 | 0.00 | 0.00 | 53 | 1009.0 |
| 20260506141412 | 57 | 90 | 1.0 | 4.0 | 0.00 | 0.00 | 0.00 | 56 | 1009.0 |
| 20260506131411 | 57 | 225 | 6.0 | 19.0 | 0.00 | 0.00 | 0.00 | 50 | 1009.0 |
| 20260506124411 | 56 | 0 | 3.0 | 20.0 | 0.00 | 0.00 | 0.00 | 48 | 1008.9 |
| 20260506121411 | 56 | 45 | 3.0 | 14.0 | 0.00 | 0.00 | 0.00 | 54 | 1008.8 |
| 20260506114411 | 55 | 135 | 3.0 | 13.0 | 0.00 | 0.00 | 0.00 | 50 | 1008.8 |
| 20260506111412 | 54 | 225 | 3.0 | 11.0 | 0.00 | 0.00 | 0.00 | 50 | 1008.7 |
| 20260506104412 | 55 | 315 | 4.0 | 13.0 | 0.00 | 0.00 | 0.00 | 51 | 1008.6 |
| 20260506094412 | 52 | 180 | 2.0 | 10.0 | 0.00 | 0.00 | 0.00 | 61 | 1008.5 |
| 20260506091412 | 51 | 45 | 1.0 | 4.0 | 0.00 | 0.00 | 0.00 | 72 | 1008.4 |
| 20260506084412 | 51 | 247 | 1.0 | 4.0 | 0.00 | 0.00 | 0.00 | 79 | 1008.2 |
| 20260506081413 | 50 | 225 | 2.0 | 10.0 | 0.00 | 0.00 | 0.00 | 84 | 1008.1 |
| 20260506071412 | 50 | 45 | 1.0 | 4.0 | 0.00 | 0.00 | 0.00 | 99 | 1007.9 |